#timestamp,LO_Frequency,Hit,StdDev 
1581451215.2,286047003.8,N
1581451235.0,286047011.9,Y
1581451235.9,286047002.8,P
1581451255.8,286047004.1,P
1581451275.6,286047000.2,N
1581451295.5,286047000.4,N
1581451315.3,286047002.8,N
1581451335.1,286047000.2,N
1581451355.9,286047000.3,N
1581451375.7,286046998.7,N
1581451395.5,286046997.1,N
1581451415.4,286046998.4,N
1581451435.2,286047001.1,N
1581451455.1,286047000.9,N
1581451456.0,286047000.9,N
1581451475.8,286047000.9,N
1581451495.6,286047001.0,N
1581451515.5,286046999.0,N
1581451535.3,286046998.7,N
1581451555.2,286046999.0,N
1581451575.9,286046999.3,N
1581451595.7,286046995.2,N
1581451615.6,286046994.9,N
1581451635.4,286046995.4,N
1581451655.2,286046997.6,N
1581451675.1,286046996.1,N
1581451676.0,286046996.1,N
1581451695.8,286046997.6,N
1581451715.7,286046997.6,N
1581451735.5,286046995.3,N
1581451755.3,286046998.0,N
1581451775.2,286046994.9,N
1581451795.0,286046994.9,N
1581451795.9,286046994.9,N
1581451815.8,286046995.2,N
1581451835.6,286046997.2,N
1581451855.4,286046999.2,N
1581451875.3,286046995.0,N
1581451895.1,286046996.8,N
1581451915.8,286046996.5,N
1581451935.7,286046997.7,N
1581451955.5,286046997.2,N
1581451975.4,286046996.5,N
1581451995.2,286046995.5,N
1581452015.0,286046995.7,N
1581452015.9,286046995.7,N
1581452035.8,286046996.1,N
1581452055.6,286046996.4,N
1581452075.5,286046995.2,Y
1581452095.3,286047000.7,P
1581452115.1,286046998.5,N
1581452135.9,286046998.4,N
1581452155.7,286046998.1,N
1581452175.5,286046998.8,N
1581452195.4,286047002.7,N
1581452215.2,286046998.8,N
1581452235.1,286047002.2,N
1581452236.0,286047002.2,N
1581452255.8,286047003.7,N
1581452275.6,286047002.5,N
1581452295.5,286047000.4,N
1581452315.3,286046998.5,N
1581452335.1,286047001.1,N
1581452355.9,286046999.3,N
1581452375.7,286046999.6,N
1581452395.6,286046999.1,N
1581452415.4,286046997.4,N
1581452435.2,286046997.5,N
1581452455.1,286046995.2,N
1581452456.0,286046995.2,N
1581452475.8,286046995.3,N
1581452495.7,286046997.9,N
1581452515.5,286046999.6,N
1581452535.3,286046997.0,N
1581452555.2,286046999.0,N
1581452575.0,286047002.4,N
1581452575.9,286047002.4,N
1581452595.7,286046999.8,N
1581452615.6,286046998.1,N
1581452635.4,286047001.0,N
1581452655.3,286047001.6,N
1581452675.1,286047000.0,N
1581452695.8,286046998.9,N
1581452715.7,286046998.9,N
1581452735.5,286046999.3,N
1581452755.4,286046997.8,N
1581452775.2,286046995.7,N
1581452795.0,286046998.0,N
1581452795.9,286046998.0,N
1581452815.8,286046994.9,N
1581452835.6,286046999.4,N
1581452855.4,286046997.5,N
1581452875.3,286046993.7,Y
1581452895.1,286046997.9,P
1581452915.9,286046995.1,P
1581452935.7,286046995.5,P
1581452955.5,286046996.5,N
1581452975.4,286047001.2,N
1581452995.2,286046998.9,N
1581453015.1,286047000.6,N
1581453016.0,286047000.6,N
1581453035.8,286047000.7,N
1581453055.6,286047000.0,N
1581453075.5,286047000.1,N
1581453095.3,286046998.7,N
1581453115.1,286046997.9,N
1581453135.9,286046994.9,N
1581453155.7,286046995.9,N
1581453175.6,286046995.1,N
1581453195.4,286046995.7,N
1581453215.2,286046997.1,N
1581453235.1,286046997.9,N
1581453236.0,286046997.9,N
1581453255.8,286046994.7,N
1581453275.7,286046992.9,Y
1581453295.5,286046996.1,P
1581453315.3,286046998.0,N
1581453335.2,286046997.2,P
1581453355.0,286046997.7,Y
1581453355.9,286046997.7,P
1581453375.8,286046996.8,P
1581453395.6,286046998.9,P
1581453415.4,286046999.9,N
1581453435.3,286046999.5,N
1581453455.1,286046998.9,N
1581453475.8,286046998.3,N
1581453495.7,286047001.0,N
1581453515.5,286046999.4,N
1581453535.4,286046996.5,N
1581453555.2,286047001.2,N
1581453575.0,286047001.2,N
1581453575.9,286047001.2,N
1581453595.8,286047000.5,N
1581453615.6,286047000.4,N
1581453635.4,286047000.2,N
1581453655.3,286047002.6,N
1581453675.1,286047004.3,N
1581453695.9,286047005.0,N
1581453715.7,286047006.0,N
1581453735.5,286047005.1,N
1581453755.4,286047003.1,N
1581453775.2,286047004.8,N
1581453795.1,286047002.3,N
1581453796.0,286047002.3,N
1581453815.8,286047001.6,N
1581453835.6,286047001.0,N
1581453855.5,286046996.5,N
1581453875.3,286047002.6,N
1581453895.1,286047002.7,N
1581453915.9,286047000.2,N
1581453935.7,286047002.6,N
1581453955.6,286047000.1,N
1581453975.4,286046999.4,N
1581453995.2,286047001.1,N
1581454015.1,286046999.9,N
1581454016.0,286046999.9,N
1581454035.8,286047000.5,N
1581454055.7,286047002.1,N
1581454075.5,286047003.7,N
1581454095.3,286047003.9,N
1581454115.2,286046999.9,N
1581454135.0,286047000.1,N
1581454135.9,286047000.1,N
1581454155.7,286047001.0,N
1581454175.6,286047001.1,N
1581454195.4,286046997.2,N
1581454215.3,286047000.8,N
1581454235.1,286046999.4,N
1581454236.0,286046999.4,N
1581454255.8,286046997.0,N
1581454275.7,286046999.0,N
1581454295.5,286046997.3,N
1581454315.4,286046996.9,N
1581454335.2,286046998.9,N
1581454355.0,286046998.9,N
1581454355.9,286046998.9,N
1581454375.8,286046998.6,N
1581454395.6,286046999.6,N
1581454415.4,286046996.8,N
1581454435.3,286046997.9,N
1581454455.1,286047000.7,N
1581454475.9,286047002.1,N
1581454495.7,286047003.9,N
1581454515.5,286047003.4,N
1581454535.4,286047003.2,N
1581454555.2,286047003.8,N
1581454575.0,286047001.7,N
1581454576.0,286047001.7,N
1581454595.8,286047001.3,N
1581454615.6,286047002.3,N
1581454635.5,286047004.1,N
1581454655.3,286047006.0,N
1581454675.1,286047003.7,N
1581454695.9,286047003.2,N
1581454715.7,286047002.1,N
1581454735.6,286047000.9,N
1581454755.4,286047002.7,N
1581454775.2,286047001.0,N
1581454795.1,286046998.2,N
1581454796.0,286046998.2,N
